This demonstration page uses our WeatherBlox Daily Observations layout. Learn more.

Left ArrowRight Arrow

Hourly Observations for July 23, 2016

Temp ( °F °C ) Dew Point ( °F °C ) Humidity (%) Winds ( mph kmh ) Pressure ( in mb ) Visibility ( mi km ) Precip ( " mm )
12:51 am 00:51 Clear 83 28.3 55 12.8 38 38 WNW 7 11 29.79 1009 10 16 0.00 0.00
1:51 am 01:51 Clear 79 26.1 56 13.3 45 45 NW 3 6 29.77 1008 10 16 0.00 0.00
2:51 am 02:51 Clear 80 26.7 55 12.8 42 42 Calm 29.76 1008 10 16 0.00 0.00
3:51 am 03:51 Clear 74 23.3 60 15.6 62 62 Calm 29.78 1008 10 16 0.00 0.00
4:51 am 04:51 Clear 74 23.3 58 14.4 57 57 SE 5 7 29.78 1009 10 16 0.00 0.00
5:51 am 05:51 Sunny 76 24.4 57 13.9 52 52 SW 3 6 29.79 1009 10 16 0.00 0.00
6:51 am 06:51 Sunny 79 26.1 58 14.4 49 49 Calm 29.83 1010 10 16 0.00 0.00
7:51 am 07:51 Sunny 82 27.8 57 13.9 42 42 W 3 6 29.84 1010 10 16 0.00 0.00
8:51 am 08:51 Sunny 87 30.6 55 12.8 34 34 Calm 29.83 1010 10 16 0.00 0.00
9:51 am 09:51 Sunny 95 35 53 11.7 24 24 WNW 12 19 29.81 1009 10 16 0.00 0.00
10:51 am 10:51 Sunny 98 36.7 52 11.1 21 21 W 21 33 29.79 1009 10 16 0.00 0.00
11:51 am 11:51 Sunny 100 37.8 51 10.6 19 19 WNW 18 30 29.77 1008 10 16 0.00 0.00
12:51 pm 12:51 Sunny 103 39.4 48 8.9 16 16 WNW 17 28 29.74 1007 10 16 0.00 0.00
1:51 pm 13:51 Sunny 105 40.6 48 8.9 15 15 WNW 16 26 29.71 1006 10 16 0.00 0.00
2:51 pm 14:51 Sunny 106 41.1 45 7.2 13 13 NW 8 13 29.67 1005 10 16 0.00 0.00
3:51 pm 15:51 Sunny 105 40.6 48 8.9 15 15 NW 15 24 29.65 1004 10 16 0.00 0.00
4:51 pm 16:51 Sunny 105 40.6 50 10 16 16 W 17 28 29.64 1004 10 16 0.00 0.00
5:51 pm 17:51 Sunny 104 40 50 10 16 16 WNW 17 28 29.64 1004 10 16 0.00 0.00
6:32 pm 18:32 Sunny 97 36.1 49 9.4 20 20 NE 30 48 29.59 1002 10 16 0.00 0.00
6:51 pm 18:51 Sunny 94 34.4 51 10.6 23 23 NNE 21 33 29.69 1006 10 16 0.00 0.00
7:51 pm 19:51 Clear 93 33.9 50 10 23 23 NE 14 22 29.69 1006 10 16 0.00 0.00
8:51 pm 20:51 Clear 90 32.2 52 11.1 27 27 NNW 7 11 29.73 1007 10 16 0.00 0.00
9:51 pm 21:51 Clear 88 31.1 52 11.1 29 29 NW 5 7 29.73 1007 10 16 0.00 0.00
10:51 pm 22:51 Clear 85 29.4 54 12.2 35 35 WSW 10 17 29.72 1006 10 16 0.00 0.00
11:51 pm 23:51 Clear 84 28.9 51 10.6 32 32 N 8 13 29.70 1006 10 16 0.00 0.00

Powered by AerisWeather